Natures Way Challenger — WDF7294 — position and weather

sailwx.info

Track history (hours):
 
Tides and Currents Weather Stations Pressure Air Temp Water Temp Dewpoint Dewpoint Depression Visibility Wind Speed Wind Dir Waves Ship Positions

Natures Way Challenger

Owner: Natures Way Marine, LLC, Theodore, AL. More information available from US FCC via Universal Licensing System and Coast Guard Vessel Documentation Center.

Last reported at 2014-Oct-28 02:26 UTC. Time now 2014-Oct-31 15:41 UTC.
Position N 29°39' W 091°23'.

Length 14 m.

Type: Towing. MMSI: 367483050.

Date/timePositionNaut miles runAvg speedWind from/ knotsBaromVisibWave heightAir tempDewpointWater temp
2014-Oct-28 02:26N 29°39' W 091°23'3 3.7
2014-Oct-28 01:33N 29°38' W 091°19'4 3.9
2014-Oct-28 00:33N 29°40' W 091°15'3 3.2
2014-Oct-27 23:33N 29°41' W 091°11'2 1.7
2014-Oct-27 22:33N 29°41' W 091°09'1 0.8
2014-Oct-27 21:33N 29°41' W 091°09'1 1.2
2014-Oct-27 20:33N 29°40' W 091°08'3 2.5
2014-Oct-27 19:33N 29°38' W 091°05'6 2.8
2014-Oct-27 17:15N 29°36' W 090°58'56 1.8
2014-Oct-26 10:04N 29°55' W 089°58'2 4.1
2014-Oct-26 09:32N 29°57' W 090°01'4 3.6
2014-Oct-26 08:33N 29°55' W 090°04'1 0.6
2014-Oct-26 07:33N 29°55' W 090°05'0 0.3
2014-Oct-26 06:33N 29°55' W 090°05'44 1.1
2014-Oct-24 12:33N 30°05' W 090°55'4 4.0
2014-Oct-24 11:29N 30°03' W 090°50'4 4.4
2014-Oct-24 10:33N 29°59' W 090°49'35 1.7
2014-Oct-23 14:30N 29°57' W 090°09'4 3.6
2014-Oct-23 13:23N 29°55' W 090°05'3 3.9
2014-Oct-23 12:34N 29°57' W 090°03'3 0.9
2014-Oct-23 09:32N 29°56' W 089°60'2 2.4
2014-Oct-23 08:32N 29°58' W 090°02'0 0.4
2014-Oct-23 07:25N 29°59' W 090°01'1 0.7
2014-Oct-23 06:33N 29°59' W 090°01'1 0.5
2014-Oct-23 05:26N 29°60' W 090°01'0 0.0
2014-Oct-22 17:05N 29°60' W 090°01'  
Track history (hours):
 
Tides and Currents Weather Stations Pressure Air Temp Water Temp Dewpoint Dewpoint Depression Visibility Wind Speed Wind Dir Waves Ship Positions

Natures Way Challenger

Owner: Natures Way Marine, LLC, Theodore, AL. More information available from US FCC via Universal Licensing System and Coast Guard Vessel Documentation Center.

Last reported at 2014-Oct-28 02:26 UTC. Time now 2014-Oct-31 15:41 UTC.
Position N 29°39' W 091°23'.

Length 14 m.

Type: Towing. MMSI: 367483050.

Date/timePositionNaut miles runAvg speedWind from/ knotsBaromVisibWave heightAir tempDewpointWater temp
2014-Oct-28 02:26N 29°39' W 091°23'3 3.7
2014-Oct-28 01:33N 29°38' W 091°19'4 3.9
2014-Oct-28 00:33N 29°40' W 091°15'3 3.2
2014-Oct-27 23:33N 29°41' W 091°11'2 1.7
2014-Oct-27 22:33N 29°41' W 091°09'1 0.8
2014-Oct-27 21:33N 29°41' W 091°09'1 1.2
2014-Oct-27 20:33N 29°40' W 091°08'3 2.5
2014-Oct-27 19:33N 29°38' W 091°05'6 2.8
2014-Oct-27 17:15N 29°36' W 090°58'56 1.8
2014-Oct-26 10:04N 29°55' W 089°58'2 4.1
2014-Oct-26 09:32N 29°57' W 090°01'4 3.6
2014-Oct-26 08:33N 29°55' W 090°04'1 0.6
2014-Oct-26 07:33N 29°55' W 090°05'0 0.3
2014-Oct-26 06:33N 29°55' W 090°05'44 1.1
2014-Oct-24 12:33N 30°05' W 090°55'4 4.0
2014-Oct-24 11:29N 30°03' W 090°50'4 4.4
2014-Oct-24 10:33N 29°59' W 090°49'35 1.7
2014-Oct-23 14:30N 29°57' W 090°09'4 3.6
2014-Oct-23 13:23N 29°55' W 090°05'3 3.9
2014-Oct-23 12:34N 29°57' W 090°03'3 0.9
2014-Oct-23 09:32N 29°56' W 089°60'2 2.4
2014-Oct-23 08:32N 29°58' W 090°02'0 0.4
2014-Oct-23 07:25N 29°59' W 090°01'1 0.7
2014-Oct-23 06:33N 29°59' W 090°01'1 0.5
2014-Oct-23 05:26N 29°60' W 090°01'0 0.0
2014-Oct-22 17:05N 29°60' W 090°01'  

Dump ship's entire track history